Location: Winnipeg
(49.8830°N, 97.1670°W)
Time: 18:07:49
(UTC-06:00)

ISS - Visible Passes

Search period start: 23 February 2020 00:00
Search period end: 04 March 2020 00:00
Orbit: 415 x 422 km, 51.6° (Epoch: 24 February)

Date Brightness Start Highest point End Pass type
(mag) Time Alt. Az. Time Alt. Az. Time Alt. Az.
23 Feb -2.3 06:41:56 10° SW 06:45:05 37° SSE 06:48:15 10° E visible
24 Feb -1.8 05:54:41 10° SSW 05:57:33 26° SE 06:00:26 10° E visible
25 Feb -1.5 05:09:15 17° SSE 05:10:04 18° SE 05:12:27 10° E visible
25 Feb -3.5 06:43:04 10° WSW 06:46:26 72° SSE 06:49:50 10° ENE visible
26 Feb -0.5 04:23:43 11° ESE 04:23:43 11° ESE 04:23:59 10° ESE visible
26 Feb -3.2 05:56:40 19° SW 05:58:49 53° SSE 06:02:07 10° ENE visible
27 Feb -2.7 05:11:02 37° SSE 05:11:13 37° SSE 05:14:22 10° E visible
28 Feb -1.0 04:25:18 18° ESE 04:25:18 18° ESE 04:26:31 10° E visible
28 Feb -3.8 05:58:15 24° WSW 06:00:11 89° N 06:03:35 10° ENE visible
29 Feb -3.8 05:12:26 72° SSE 05:12:29 72° SSE 05:15:52 10° ENE visible
01 Mar -1.4 04:26:35 24° E 04:26:35 24° E 04:28:07 10° ENE visible
01 Mar -3.6 05:59:32 21° W 06:01:37 66° N 06:04:59 10° ENE visible
02 Mar -3.9 05:13:38 70° NW 05:13:51 74° NNW 05:17:14 10° ENE visible
03 Mar -1.7 04:27:42 29° ENE 04:27:42 29° ENE 04:29:29 10° ENE visible
03 Mar -3.5 06:00:39 18° WNW 06:03:03 63° N 06:06:25 10° E visible
